sat.trackr.live / text

‹ back to catalog

QIANFAN-64

NORAD 62794 · 2025-016K

PAYLOAD ACTIVE UNKNOWN

§ Identity

Operator
Country
PRC
Launch date
2025-01-23
Launch site
TAISC
Launch vehicle
Mass (kg)
RCS (m²)

External: N2YO · Heavens-Above · Gunter

§ Orbital elements

Epoch: 2026-09-22T21:56:15.794880Z

Period
106.59 min
Inclination
88.9661°
Eccentricity
0.0012533
Mean motion
13.51027816 rev/d
Perigee alt
1,059.1 km
Apogee alt
1,077.8 km
Semi-major
7,446.6 km
B*
6.7961e-5
RAAN
73.4889°
Arg perigee
236.3354°
Mean anomaly
123.6602°
Rev number
8,563

§ Raw data

QIANFAN-641 62794U 25016K   26265.91407170  .00000056  00000+0  67961-4 0  99952 62794  88.9661  73.4889 0012533 236.3354 123.6602 13.51027816 85633

JSON: /api/v1/satellites/62794 · /tle

For live sub-satellite position, see the globe view (requires WebGL).

§ Visibility from observer

Set your observer location to see the next 7 days of passes ≥ 10°. The values pass through the URL so the page stays shareable.

No JS? Fill the form by hand. The geolocation button needs JavaScript.